• En España
  • Lista de países
  • Para 7 días
  • Temperatura del agua
  • Mapa Satelital
  • El tiempo en el mapa
  • Informadores
  • user-avatar
    Iniciar sesión

    Tiempo cada hora Komsomolskiy

    Hoy, 22 Octubre, Lunes

    Tiempo Temperatura Precipitaciones Viento Presión Humedad
    00:00 -1°C° 0 mm 1 mps 745 mmHg 87%
    01:00 -1°C° 0 mm 1 mps 745 mmHg 88%
    02:00 -1°C° 0 mm 1 mps 745 mmHg 89%
    03:00 -1°C° 0 mm 1 mps 745 mmHg 91%
    04:00 -1°C° 0 mm 1 mps 745 mmHg 94%
    05:00 -3°C° 0 mm 2 mps 745 mmHg 94%
    06:00 -3°C° 0 mm 2 mps 744 mmHg 94%
    07:00 -3°C° 0 mm 2 mps 744 mmHg 95%
    08:00 -2°C° 0 mm 2 mps 744 mmHg 89%
    09:00 -1°C° 0 mm 3 mps 744 mmHg 84%
    10:00 -1°C° 0 mm 4 mps 743 mmHg 77%
    11:00 -1°C° 0 mm 4 mps 743 mmHg 75%
    12:00 0°C° 0 mm 4 mps 742 mmHg 72%
    13:00 0°C° 0 mm 4 mps 742 mmHg 69%
    14:00 0°C° 0 mm 5 mps 741 mmHg 70%
    15:00 0°C° 0 mm 5 mps 740 mmHg 70%
    16:00 0°C° 0 mm 5 mps 740 mmHg 70%
    17:00 0°C° 0 mm 5 mps 739 mmHg 71%
    18:00 0°C° 0 mm 5 mps 738 mmHg 71%
    19:00 0°C° 0 mm 5 mps 738 mmHg 72%
    20:00 0°C° 0 mm 5 mps 737 mmHg 74%
    21:00 -1°C° 0 mm 6 mps 736 mmHg 75%
    22:00 -1°C° 0 mm 6 mps 736 mmHg 76%
    23:00 -1°C° 0 mm 6 mps 735 mmHg 77%

    Mañana, 23 Octubre, Martes

    Tiempo Temperatura Precipitaciones Viento Presión Humedad
    00:00 0°C° 0 mm 5 mps 735 mmHg 78%
    01:00 +1°C° 0 mm 5 mps 734 mmHg 78%
    02:00 0°C° 0 mm 5 mps 734 mmHg 79%
    03:00 0°C° 0 mm 5 mps 734 mmHg 80%
    04:00 0°C° 0 mm 5 mps 734 mmHg 81%
    05:00 0°C° 0 mm 5 mps 733 mmHg 81%
    06:00 0°C° 0 mm 5 mps 733 mmHg 82%
    07:00 0°C° 0 mm 5 mps 733 mmHg 82%
    08:00 0°C° 0 mm 5 mps 733 mmHg 81%
    09:00 +1°C° 0 mm 5 mps 733 mmHg 80%
    10:00 +1°C° 0 mm 5 mps 733 mmHg 78%
    11:00 +1°C° 0 mm 5 mps 733 mmHg 76%
    12:00 +2°C° 0 mm 5 mps 732 mmHg 74%
    13:00 +3°C° 0 mm 5 mps 732 mmHg 71%
    14:00 +3°C° 0 mm 5 mps 732 mmHg 76%
    15:00 +3°C° 0 mm 5 mps 731 mmHg 80%
    16:00 +4°C° 0 mm 4 mps 731 mmHg 84%
    17:00 +5°C° 0.4 mm 5 mps 730 mmHg 85%
    18:00 +5°C° 0.4 mm 5 mps 730 mmHg 86%
    19:00 +5°C° 0.4 mm 5 mps 730 mmHg 87%
    20:00 +5°C° 0.8 mm 5 mps 729 mmHg 87%
    21:00 +5°C° 0.8 mm 5 mps 729 mmHg 87%
    22:00 +5°C° 0.8 mm 5 mps 729 mmHg 87%
    23:00 +5°C° 0.5 mm 5 mps 729 mmHg 87%

    Pasado mañana, 24 Octubre, Miércoles

    Tiempo Temperatura Precipitaciones Viento Presión Humedad
    00:00 +4°C° 0.5 mm 4 mps 729 mmHg 87%
    01:00 +4°C° 0.5 mm 4 mps 728 mmHg 88%
    02:00 +4°C° 0.3 mm 4 mps 728 mmHg 88%
    03:00 +4°C° 0.3 mm 4 mps 728 mmHg 89%
    04:00 +4°C° 0.3 mm 3 mps 728 mmHg 90%
    05:00 +4°C° 0.4 mm 3 mps 728 mmHg 90%
    06:00 +4°C° 0.4 mm 3 mps 728 mmHg 91%
    07:00 +3°C° 0.4 mm 3 mps 728 mmHg 92%
    08:00 +5°C° 0.2 mm 2 mps 728 mmHg 92%
    09:00 +5°C° 0.2 mm 2 mps 728 mmHg 91%
    10:00 +5°C° 0.2 mm 2 mps 729 mmHg 91%
    11:00 +5°C° 0 mm 2 mps 729 mmHg 90%
    12:00 +6°C° 0 mm 2 mps 729 mmHg 88%
    13:00 +6°C° 0 mm 2 mps 729 mmHg 87%
    14:00 +6°C° 0.1 mm 2 mps 729 mmHg 88%
    15:00 +6°C° 0.1 mm 2 mps 729 mmHg 89%
    16:00 +6°C° 0.1 mm 2 mps 729 mmHg 90%
    17:00 +6°C° 0.1 mm 2 mps 729 mmHg 90%
    18:00 +6°C° 0.1 mm 2 mps 729 mmHg 91%
    19:00 +5°C° 0.1 mm 2 mps 729 mmHg 92%
    20:00 +5°C° 0.1 mm 2 mps 729 mmHg 93%
    21:00 +5°C° 0.1 mm 2 mps 729 mmHg 94%
    22:00 +6°C° 0.1 mm 2 mps 728 mmHg 95%
    23:00 +5°C° 0 mm 2 mps 728 mmHg 95%

    25 Octubre, Jueves

    Tiempo Temperatura Precipitaciones Viento Presión Humedad
    00:00 +4°C° 0 mm 3 mps 729 mmHg 94%
    01:00 +4°C° 0 mm 3 mps 729 mmHg 93%
    02:00 +4°C° 0 mm 3 mps 729 mmHg 93%
    03:00 +3°C° 0 mm 3 mps 729 mmHg 93%
    04:00 +3°C° 0 mm 3 mps 729 mmHg 92%
    05:00 +3°C° 0 mm 3 mps 729 mmHg 93%
    06:00 +3°C° 0 mm 3 mps 730 mmHg 94%
    07:00 +3°C° 0 mm 3 mps 730 mmHg 94%
    08:00 +3°C° 0 mm 3 mps 730 mmHg 91%
    09:00 +4°C° 0 mm 3 mps 730 mmHg 87%
    10:00 +5°C° 0 mm 3 mps 730 mmHg 84%
    11:00 +6°C° 0 mm 4 mps 730 mmHg 82%
    12:00 +6°C° 0 mm 4 mps 730 mmHg 81%
    13:00 +7°C° 0 mm 4 mps 730 mmHg 79%
    14:00 +7°C° 0.5 mm 4 mps 729 mmHg 82%
    15:00 +7°C° 0.5 mm 4 mps 729 mmHg 84%
    16:00 +6°C° 0.5 mm 4 mps 729 mmHg 87%
    17:00 +7°C° 0.8 mm 4 mps 729 mmHg 88%
    18:00 +7°C° 0.8 mm 5 mps 728 mmHg 88%
    19:00 +7°C° 0.8 mm 5 mps 728 mmHg 89%
    20:00 +7°C° 0.8 mm 5 mps 728 mmHg 88%
    21:00 +7°C° 0.8 mm 5 mps 727 mmHg 87%
    22:00 +7°C° 0.8 mm 4 mps 727 mmHg 85%
    23:00 +7°C° 0.1 mm 4 mps 726 mmHg 82%

    26 Octubre, Viernes

    Tiempo Temperatura Precipitaciones Viento Presión Humedad
    00:00 +8°C° 0.1 mm 5 mps 726 mmHg 79%
    01:00 +8°C° 0.1 mm 5 mps 726 mmHg 75%
    02:00 +8°C° 0 mm 5 mps 725 mmHg 74%
    03:00 +8°C° 0 mm 5 mps 725 mmHg 72%
    04:00 +8°C° 0 mm 5 mps 725 mmHg 71%
    05:00 +8°C° 0.2 mm 5 mps 724 mmHg 73%
    06:00 +8°C° 0.2 mm 4 mps 724 mmHg 75%
    07:00 +7°C° 0.2 mm 4 mps 723 mmHg 77%
    08:00 +7°C° 0.6 mm 4 mps 723 mmHg 76%
    09:00 +7°C° 0.6 mm 4 mps 723 mmHg 76%
    10:00 +8°C° 0.6 mm 5 mps 722 mmHg 76%
    11:00 +7°C° 0.6 mm 5 mps 722 mmHg 77%
    12:00 +7°C° 0.6 mm 5 mps 722 mmHg 79%
    13:00 +7°C° 0.6 mm 5 mps 722 mmHg 80%
    14:00 +7°C° 0.8 mm 4 mps 722 mmHg 83%
    15:00 +7°C° 0.8 mm 4 mps 722 mmHg 86%
    16:00 +6°C° 0.8 mm 4 mps 722 mmHg 89%
    17:00 +7°C° 0.3 mm 3 mps 722 mmHg 89%
    18:00 +5°C° 0.3 mm 3 mps 722 mmHg 89%
    19:00 +5°C° 0.3 mm 3 mps 722 mmHg 90%
    20:00 +4°C° 0 mm 3 mps 722 mmHg 89%
    21:00 +4°C° 0 mm 3 mps 723 mmHg 89%
    22:00 +3°C° 0 mm 3 mps 723 mmHg 89%
    23:00 +3°C° 0 mm 3 mps 723 mmHg 89%

    27 Octubre, Sábado

    Tiempo Temperatura Precipitaciones Viento Presión Humedad
    00:00 +2°C° 0 mm 3 mps 723 mmHg 89%
    01:00 +2°C° 0 mm 3 mps 724 mmHg 89%
    02:00 +2°C° 0 mm 3 mps 724 mmHg 88%
    03:00 +2°C° 0 mm 3 mps 724 mmHg 88%
    04:00 +1°C° 0 mm 3 mps 724 mmHg 88%
    05:00 +1°C° 0 mm 3 mps 724 mmHg 87%
    06:00 +1°C° 0 mm 3 mps 724 mmHg 87%
    07:00 +1°C° 0 mm 3 mps 724 mmHg 86%
    08:00 +2°C° 0 mm 3 mps 724 mmHg 84%
    09:00 +1°C° 0 mm 4 mps 724 mmHg 82%
    10:00 +1°C° 0 mm 4 mps 724 mmHg 80%
    11:00 +1°C° 0.1 mm 4 mps 725 mmHg 77%
    12:00 +1°C° 0.1 mm 4 mps 725 mmHg 74%
    13:00 +1°C° 0.1 mm 4 mps 725 mmHg 71%
    14:00 +1°C° 0.1 mm 4 mps 725 mmHg 72%
    15:00 +1°C° 0.1 mm 4 mps 726 mmHg 72%
    16:00 0°C° 0.1 mm 4 mps 726 mmHg 73%
    17:00 0°C° 0 mm 4 mps 726 mmHg 74%
    18:00 0°C° 0 mm 4 mps 727 mmHg 75%
    19:00 -1°C° 0 mm 4 mps 727 mmHg 76%
    20:00 -1°C° 0.1 mm 4 mps 728 mmHg 77%
    21:00 -1°C° 0.1 mm 4 mps 728 mmHg 78%
    22:00 -1°C° 0.1 mm 4 mps 729 mmHg 79%
    23:00 -1°C° 0.1 mm 4 mps 729 mmHg 79%

    28 Octubre, Domingo

    Tiempo Temperatura Precipitaciones Viento Presión Humedad
    00:00 -1°C° 0.1 mm 4 mps 730 mmHg 80%
    01:00 -1°C° 0.1 mm 4 mps 730 mmHg 80%
    02:00 -1°C° 0 mm 4 mps 731 mmHg 80%
    03:00 -2°C° 0 mm 4 mps 731 mmHg 81%
    04:00 -2°C° 0 mm 4 mps 732 mmHg 81%
    05:00 -2°C° 0 mm 4 mps 732 mmHg 81%
    06:00 -2°C° 0 mm 4 mps 732 mmHg 80%
    07:00 -3°C° 0 mm 4 mps 733 mmHg 80%
    08:00 -2°C° 0 mm 5 mps 733 mmHg 78%
    09:00 -2°C° 0 mm 5 mps 733 mmHg 76%
    10:00 -2°C° 0 mm 5 mps 733 mmHg 75%
    11:00 -2°C° 0.1 mm 5 mps 733 mmHg 76%
    12:00 -1°C° 0.1 mm 4 mps 733 mmHg 77%
    13:00 -1°C° 0.1 mm 4 mps 733 mmHg 79%
    14:00 -1°C° 0.2 mm 4 mps 733 mmHg 81%
    15:00 0°C° 0.2 mm 3 mps 733 mmHg 83%
    16:00 0°C° 0.2 mm 3 mps 733 mmHg 85%
    17:00 0°C° 0.1 mm 3 mps 733 mmHg 87%
    18:00 0°C° 0.1 mm 3 mps 733 mmHg 89%
    19:00 +1°C° 0.1 mm 2 mps 733 mmHg 91%
    20:00 +1°C° 0 mm 2 mps 733 mmHg 91%
    21:00 +1°C° 0 mm 2 mps 734 mmHg 91%
    22:00 +1°C° 0 mm 2 mps 734 mmHg 91%
    23:00 -1°C° 0 mm 2 mps 734 mmHg 92%
    Mostrar más